Weather History for Fort Myers, FL

Change the Weather History Date:

Monday, April 8, 2013

  Actual Average Record
Temperature  
Mean Temperature 75 °F 73 °F  
Max Temperature 87 °F 83 °F 92 °F (1994)
Min Temperature 63 °F 62 °F 39 °F (1950)
Degree Days  
Heating Degree Days 0 0  
Month to date heating degree days 0 0  
Since 1 July heating degree days 201 284  
Cooling Degree Days 10 8  
Month to date cooling degree days 67 60  
Year to date cooling degree days 449 421  
Growing Degree Days 24 (Base 50)    
Moisture  
Dew Point 58 °F    
Average Humidity 58    
Maximum Humidity 87    
Minimum Humidity 32    
Precipitation  
Precipitation 0.00 in 0.07 in 1.41 in (1994)
Month to date precipitation 1.26 0.64  
Year to date precipitation 4.52 7.61  
Sea Level Pressure  
Sea Level Pressure 30.09 in    
Wind  
Wind Speed 5 mph (East)    
Max Wind Speed 15 mph    
Max Gust Speed 20 mph    
Visibility 10 miles    
Events      
T = Trace of Precipitation, MM = Missing Value Source: NWS Daily Summary

Daily Weather History Graph

Daily Weather History Graph

Search for Another Location

Airport:

Trip Planner

Search our weather history database for the weather conditions in past years. The results will help you decide how hot, cold, wet, or windy it might be!

Date:

Astronomy

Apr. 08, 2013 Rise Set
Actual Time 7:10 AM EDT 7:48 PM EDT
Civil Twilight 6:47 AM EDT 8:11 PM EDT
Nautical Twilight 6:19 AM EDT 8:39 PM EDT
Astronomical Twilight 5:51 AM EDT 9:07 PM EDT
Moon 5:51 AM EDT (4/8) 6:26 PM EDT (4/8)
Length of Visible Light 13h 24m
Length of Day
12h 37m
Waning Crescent, 3% of the Moon is Illuminated
Apr 8
Waning Crescent
Apr 10
New
Apr 18
First Quarter
Apr 25
Full
May 2
Last Quarter

Hourly Weather History & Observations

Time (EDT) Temp. Heat Index Dew Point Humidity Pressure Visibility Wind Dir Wind Speed Gust Speed Precip Events Conditions
12:53 AM 70.0 °F - 60.1 °F 71% 30.10 in 10.0 mi ESE 4.6 mph - N/A   Overcast
1:53 AM 69.1 °F - 60.1 °F 73% 30.10 in 10.0 mi East 4.6 mph - N/A   Overcast
2:53 AM 69.1 °F - 60.1 °F 73% 30.08 in 10.0 mi ENE 3.5 mph - N/A   Overcast
3:53 AM 68.0 °F - 60.1 °F 76% 30.06 in 10.0 mi ENE 4.6 mph - N/A   Overcast
4:53 AM 66.9 °F - 59.0 °F 76% 30.06 in 10.0 mi ENE 4.6 mph - N/A   Overcast
5:53 AM 64.0 °F - 59.0 °F 84% 30.06 in 10.0 mi Calm Calm - N/A   Partly Cloudy
6:53 AM 64.0 °F - 59.0 °F 84% 30.09 in 10.0 mi Calm Calm - N/A   Clear
7:53 AM 64.0 °F - 60.1 °F 87% 30.10 in 10.0 mi East 4.6 mph - N/A   Clear
8:53 AM 70.0 °F - 60.1 °F 71% 30.12 in 10.0 mi East 6.9 mph - N/A   Clear
9:53 AM 75.0 °F - 60.1 °F 60% 30.13 in 10.0 mi SE 8.1 mph - N/A   Clear
10:53 AM 79.0 °F - 57.9 °F 48% 30.12 in 10.0 mi ESE 11.5 mph - N/A   Clear
11:53 AM 82.0 °F 81.6 °F 55.9 °F 41% 30.13 in 10.0 mi ENE 10.4 mph - N/A   Clear
12:53 PM 82.9 °F 82.0 °F 55.0 °F 38% 30.11 in 10.0 mi Variable 4.6 mph - N/A   Clear
1:53 PM 84.0 °F 82.6 °F 54.0 °F 35% 30.08 in 10.0 mi ENE 8.1 mph - N/A   Partly Cloudy
2:53 PM 84.9 °F 83.3 °F 54.0 °F 34% 30.06 in 10.0 mi East 9.2 mph - N/A   Clear
3:53 PM 84.0 °F 82.5 °F 53.1 °F 34% 30.05 in 10.0 mi Variable 3.5 mph - N/A   Mostly Cloudy
4:53 PM 84.0 °F - 52.0 °F 33% 30.04 in 10.0 mi East 4.6 mph - N/A   Clear
5:53 PM 84.0 °F 82.5 °F 53.1 °F 34% 30.04 in 10.0 mi East 5.8 mph - N/A   Overcast
6:53 PM 82.0 °F 81.4 °F 55.0 °F 39% 30.05 in 10.0 mi Variable 3.5 mph - N/A   Mostly Cloudy
7:53 PM 77.0 °F - 61.0 °F 58% 30.06 in 10.0 mi SSW 4.6 mph - N/A   Clear
8:53 PM 75.0 °F - 60.1 °F 60% 30.09 in 10.0 mi SW 5.8 mph - N/A   Clear
9:53 PM 73.9 °F - 61.0 °F 64% 30.11 in 10.0 mi Calm Calm - N/A   Clear
10:53 PM 73.0 °F - 59.0 °F 61% 30.13 in 10.0 mi ESE 8.1 mph - N/A   Clear
11:53 PM 71.1 °F - 59.0 °F 66% 30.13 in 10.0 mi ESE 6.9 mph - N/A   Clear